Location: Unspecified
(35.7250°N, 0.0000°E)
Time: 16:39:14
(UTC+00:00)

Vanguard 2 - Pass Details

Date: 18 June 2019
Orbit: 553 x 2938 km, 32.9° (Epoch: 19 July)

Event Time Altitude Azimuth Distance (km) Brightness Sun altitude
Rises 17:22:47 0° 271° (W) 6,162 13.6 20.9°
Reaches altitude 10° 17:29:10 10° 253° (WSW) 5,482 13.0 19.6°
Maximum altitude 17:37:42 16° 222° (SW) 5,209 12.2 17.9°
Drops below altitude 10° 17:46:42 10° 191° (S) 5,729 12.0 16.2°
Sets 17:53:50 0° 173° (S) 6,560 12.0 14.8°
